Skip Navigation Linkswww.weather.gov 
NOAA logo - Click to go to the NOAA homepage National Weather Service Forecast Office   NWS logo - Click to go to the NWS homepage    
Portland, Oregon
navigation bar decoration      
ESRI-based Geosearch
spacer
Hourly Weather Roundup  Link to RSS feed  
• Go Back • Print Friendly •  Latest Older  • Font:  A A A A •
• Turn Dictionary On •
ASUS46 KSEW 161410
 RWRWA 
 
 WASHINGTON REGIONAL WEATHER ROUNDUP
 NATIONAL WEATHER SERVICE SEATTLE WA
 600 AM PST SAT DEC 16 2017
 
 NOTE:"FAIR" INDICATES FEW OR NO CLOUDS BELOW 12,000 FEET WITH NO 
 SIGNIFICANT WEATHER AND/OR OBSTRUCTIONS TO VISIBILITY.
 
 WAZ507-509-555>559-161500-
 SEATTLE, TACOMA, EVERETT, AND VICINITY
   
 CITY           SKY/WX    TMP DP  RH WIND       PRES   REMARKS
 EVERETT        CLOUDY    39  37  92 E3        30.30R                  
 BOEING FIELD   PTCLDY    35  35 100 CALM      30.32R                  
 RENTON         CLEAR     37  36  96 SE5       30.32R                  
 SEATAC AIRPORT PTCLDY    38  37  97 SE6       30.30R                  
 JBLM-MCCHORD   CLOUDY    34  34 100 CALM      30.30R                  
 PUYALLUP       FAIR      36  36 100 CALM      30.30R                  
 BREMERTON      FOG       37  37 100 CALM      30.29R VSB 1            
 JBLM-FT LEWIS  CLOUDY    34  34 100 CALM      30.29R                  
 TACOMA NARROWS CLEAR     37  37 100 S3        30.30R                  
 $$
  
 WAZ001-503-506-510-514-515-161500-
 NORTH INTERIOR
   
 CITY           SKY/WX    TMP DP  RH WIND       PRES   REMARKS
 BELLINGHAM     CLOUDY    42  40  92 S9        30.27R                  
 FRIDAY HARBOR  PTCLDY    34  34 100 N3        30.28S                  
 EASTSOUND      PTCLDY    37  37 100 S3        30.28S                  
 PORT ANGELES   MOCLDY    42  34  73 W12       30.27S                  
 EDIZ HOOK      PTSUNNY   46  37  70 W10       30.27S                  
 PORT TOWNSEND  FOG       32  32 100 CALM      30.30S VSB 1/2          
 NAS WHIDBEY    MOCLDY    42  39  89 E6        30.32S                  
 ARLINGTON      CLOUDY    37  37 100 S3        30.31R                  
 BURLINGTON     CLOUDY    37  37 100 CALM      30.29S                  
 $$
  
 WAZ020-022-039-040-504-511-512-161500-
 SOUTHWEST INTERIOR
   
 CITY           SKY/WX    TMP DP  RH WIND       PRES   REMARKS
 SHELTON        FOG       34  34 100 SW3       30.28R VSB 1/4          
 OLYMPIA        PTCLDY    33  33 100 CALM      30.30R                  
 CHEHALIS       FAIR      39  37  93 SW5       30.32R                  
 KELSO          LGT RAIN  38  36  92 SE9       30.35S                  
 VANCOUVER      LGT RAIN  38  38 100 CALM      30.35F FOG              
 SCAPPOOSE, OR  CLOUDY    33  33 100 CALM      30.35S FOG              
 PORTLAND, OR   LGT RAIN  40  37  89 CALM      30.36S                  
 $$
  
 WAZ021-516-517-161500-
 WASHINGTON COAST
   
 CITY           SKY/WX    TMP DP  RH WIND       PRES   REMARKS
 FORKS          CLOUDY    44  40  85 CALM      30.28F                  
 HOQUIAM        MOCLDY    45  43  93 W6        30.30S                  
 ASTORIA, OR    CLOUDY    40  39  97 SE3       30.33R                  
 $$
  
 WAZ019-023-024-040-567>569-161500-
 CASCADE MOUNTAINS AND COLUMBIA GORGE
   
 CITY           SKY/WX    TMP DP  RH WIND       PRES   REMARKS
 STAMPEDE PASS  SNOW      30  28  92 VRB7      30.16R VSB 1/4          
 TROUTDALE, OR  CLOUDY    40  38  93 E5        30.36F                  
 HOOD RIVER, OR MOSUNNY   41  34  75 NW10      30.29S                  
 THE DALLES, OR MOCLDY    43  33  68 NW9       30.29R                  
 $$
 
 WAZ026-027-041>044-520-521-161500-
 EAST SLOPES
   
 CITY           SKY/WX    TMP DP  RH WIND       PRES   REMARKS
 OMAK           CLOUDY    28  27  96 N7        30.24R                  
 WENATCHEE      MOCLDY    26  26 100 CALM      30.23R                  
 ELLENSBURG     CLEAR     33  28  81 CALM      30.20R                  
 YAKIMA         CLEAR     22  19  89 CALM      30.24R                  
 SUNNYSIDE ARPT PTSUNNY   22  20  94 CALM      30.27R                  
 YAKIMA TC      FAIR      29  23  76 NW3       30.20R                  
 $$
 
 WAZ028-034-035-161500-
 COLUMBIA BASIN
   
 CITY           SKY/WX    TMP DP  RH WIND       PRES   REMARKS
 EPHRATA        CLOUDY    28  24  85 VRB3      30.23R                  
 MOSES LAKE     CLOUDY    30  28  92 NW5       30.24R                  
 PASCO          CLOUDY    32  30  92 CALM      30.30R                  
 RICHLAND ARPT  CLOUDY    30  30  99 E7        30.29R                  
 HERMISTON, OR  CLEAR     23  22  96 S5        30.26R FOG              
 $$
 
 WAZ036>038-161500-
 NORTHEAST WASHINGTON
   
 CITY           SKY/WX    TMP DP  RH WIND       PRES   REMARKS
 SPOKANE GEIGER FOG       25  25 100 W6        30.16R VSB 1/2          
 SPOKANE FELTS  CLOUDY    27  25  92 SW5       30.19R                  
 FAIRCHILD AFB  CLOUDY    25  25 100 W5        30.15R FOG              
 COEURDALENE,ID CLOUDY    25  24  96 SW8       30.16R                  
 DEER PARK      CLOUDY    25  24  96 CALM      30.17R                  
 $$
 
 WAZ029>033-161500-
 SOUTHEAST WASHINGTON
   
 CITY           SKY/WX    TMP DP  RH WIND       PRES   REMARKS
 PULLMAN        CLOUDY    24  21  88 W3        30.17R                  
 LEWISTON, ID   LGT SNOW  29  29 100 S5        30.23R FOG              
 WALLA WALLA    CLOUDY    30  28  92 CALM      30.24R                  
 PENDLETON, OR  CLOUDY    32  31  96 W3        30.22R                  
 $$

Webmaster
US Dept of Commerce
National Oceanic and Atmospheric Administration
National Weather Service
Portland Weather Forecast Office
5241 NE 122nd Avenue
Portland, OR 97230-1089

Tel: (503) 261-9246

Disclaimer
Information Quality
Credits
Glossary
Organization
Privacy Policy
Freedom of Information Act
About Us
Career Opportunities